Location: Maddington
(51.2000°N, 1.9167°W)
Time: 04:57:11
(UTC+00:00)

NOSS 3-2 (A) - Pass Details

Date: 18 January 2021
Orbit: 783 x 1425 km, 63.4° (Epoch: 03 March)

Event Time Altitude Azimuth Distance (km) Brightness Sun altitude
Rises 06:15:19 0° 172° (S) 3,327 6.6 -16.3°
Reaches altitude 10° 06:18:14 10° 155° (SSE) 2,460 6.1 -15.8°
Maximum altitude 06:22:16 20° 109° (ESE) 1,939 6.1 -15.2°
Drops below altitude 10° 06:26:40 10° 64° (ENE) 2,718 6.6 -14.5°
Sets 06:30:05 0° 49° (NE) 3,792 7.1 -14.0°
